Terminal Aerodrome Forecast
Issued by NWS

Current Version | Previous Version | Graphics & Text | Print | Product List | Glossary On
Versions: 1 2 3 4 5 6 7 8 9 10 11 12 13 14
000
FTUS41 KRLX 241700 RRA
TAFCKB
TAF
KCKB 241749Z 2418/2518 16007G15KT P6SM BKN050
     FM242200 22018G42KT 3SM SHRA BR VCTS BKN035CB
     FM250000 23015G34KT 6SM SHRA OVC035
     FM250200 24012G25KT P6SM BKN035
     FM250400 24010G20KT P6SM OVC025
     FM250600 24009G13KT P6SM OVC012
     FM251500 28010G15KT P6SM OVC025=

USA.gov is the U.S. government's official web portal to all federal, state and local government web resources and services.